[[{"header":{"parameterUnit":"m.s-1","parameterCategory":1,"la1":30.2991,"la2":30.254,"lo1":-89.0895,"lo2":-89.0444,"dy":0.0017,"dx":0.0017,"nx":28,"ny":28,"refTime":"2023-07-22T03:00:00:Z","depth":0,"parameterNumber":2,"parameterNumberName":"U-component_of_WINDS"},"data":[0,0,0,0,0,0,0,0,0,0,0,0,0,0,0,0,0,0,0,0,0,0,0,0,0,0,0,0,0,0,0,0,0,0,0,0,0,0,0,0,0,0,0,0,0,0,0,0,0,0,0,0,0,0,0,0,0,0,5.9757,5.9759,0,5.9872,5.9874,5.9875,5.9761,5.9757,5.9752,5.9748,5.9864,5.9871,5.9878,0,0,0,0,0,0,0,0,0,0,0,0,0,5.9437,5.9443,5.9757,5.9759,5.976,5.9872,5.9874,5.9875,5.9762,5.9756,5.9751,5.9746,5.9862,5.987,5.9879,0,0,0,0,0,0,0,0,0,0,0,0,0,5.9566,5.9445,5.9757,5.9717,5.9715,5.9872,5.9874,5.9876,5.9763,5.9756,5.975,5.9743,5.9859,5.987,5.988,6.0082,0,0,5.9914,5.9918,0,0,0,0,0,0,0,0,5.9559,5.9578,5.9722,5.972,5.9718,5.9795,5.9803,5.9945,5.9765,5.9745,5.9748,5.974,5.9847,5.9858,5.9894,6.0087,6.0092,5.9915,5.9921,5.9926,5.9929,0,0,0,0,0,0,0,5.955,5.9573,5.9803,5.9724,5.9721,5.9693,5.9704,5.9829,5.9832,5.9746,5.9738,5.9753,5.9844,5.9884,5.9896,6.0094,5.9914,5.9924,5.9931,5.9935,6.0455,6.0462,0,0,0,0,0,0,5.9546,5.9566,5.9799,5.9806,5.962,5.9704,5.9716,5.9777,5.983,5.9832,5.9759,5.9747,5.9869,5.9884,5.99,6.0137,5.9926,5.9936,5.9942,6.0448,6.0457,6.0465,0,0,0,0,0,0,5.954,5.9568,5.9794,5.9684,5.9711,5.9716,5.9786,5.9783,5.9823,5.984,5.984,5.9799,5.9864,5.9885,6.0037,6.0139,5.9941,5.9951,6.044,6.0451,6.0461,6.0614,0,0,0,0,0,0,5.9531,5.9566,5.9644,5.9687,5.9717,5.9931,5.9793,5.979,5.9842,5.9828,5.9878,5.9879,5.986,6.0021,6.0048,6.0151,5.9959,6.043,6.0445,6.0457,6.06,6.0629,6.0654,0,0,0,0,0,5.952,5.9683,5.9648,5.9677,5.9814,5.9937,5.9954,5.9929,5.9851,5.9928,5.9939,5.9878,6.0125,6.0038,6.0067,6.0175,6.0424,6.044,6.0456,6.0588,6.0624,6.0653,0,0,0,0,0,0,5.9651,5.9687,5.965,5.9831,5.9882,5.9917,6.0014,5.9968,6.0041,6.0025,5.9991,6.0003,6.0164,6.0185,6.0088,6.0371,6.0261,6.0284,6.0351,6.0385,6.0412,6.0402,5.9968,0,0,0,0,0,5.9701,5.9799,5.9825,5.9983,6.001,6.0008,6.0061,6.0037,6.0088,6.0109,6.0131,6.0182,6.027,6.0329,6.0412,6.0603,6.0611,6.0692,6.0719,6.0741,6.076,6.086,6.0896,6.0519,6.0518,6.0518,0,0,5.9806,5.9838,5.9901,6.001,6.0046,6.0147,6.0027,6.0139,6.0212,6.0125,6.027,6.0288,6.0343,6.0515,6.0592,6.0537,6.0866,6.0762,6.0779,6.0787,6.0881,6.0917,6.0948,6.053,6.0528,6.0526,0,0,6.0046,6.0082,6.0215,6.0255,6.0311,6.0309,6.0341,6.0384,6.0392,6.0537,6.0473,6.0561,6.0715,6.0755,6.0796,6.1053,6.0998,6.1081,6.1221,6.1319,6.1348,6.1374,6.1463,6.1495,6.1101,6.1101,6.1101,0,6.0168,6.0318,6.029,6.0406,6.0455,6.0382,6.0516,6.0555,6.0636,6.0671,6.0609,6.0799,6.0831,6.101,6.1073,6.111,6.1144,6.1074,6.1346,6.1372,6.1396,6.148,6.1514,6.111,6.1109,6.1108,6.1107,0,6.0464,6.0569,6.067,6.075,6.081,6.0935,6.0925,6.0989,6.0961,6.0965,6.1112,6.1148,6.1235,6.1277,6.125,6.1452,6.1416,6.1352,6.1239,6.1442,6.152,6.1552,6.1124,6.112,6.1118,6.1115,0,0,6.0789,6.0852,6.0889,6.0923,6.0981,6.106,6.1182,6.1268,6.1322,6.1381,6.148,6.1612,6.1552,6.1598,6.1576,6.1663,6.186,6.1586,6.1587,6.1633,6.2081,6.2128,6.2166,6.1825,6.1832,6.1836,6.2076,0,6.1029,6.1239,6.1217,6.1417,6.1512,6.1444,6.1549,6.1595,6.1602,6.1682,6.169,6.1783,6.1698,6.1725,6.1808,6.1818,6.1949,6.1801,6.1915,6.1919,6.19,6.2207,6.2257,6.2481,6.2106,6.2112,6.2115,0,6.1337,6.1406,6.1615,6.1656,6.1695,6.179,6.1866,6.1945,6.1995,6.1994,6.2046,6.2009,6.2128,6.2017,6.218,6.208,6.2126,6.2138,6.2146,6.2153,6.2028,6.222,6.2552,6.2584,6.2164,6.216,6.2156,0,6.155,6.1695,6.1838,6.187,6.1923,6.199,6.2015,6.2059,6.2111,6.2178,6.2211,6.2292,6.2335,6.2397,6.2381,6.2302,6.2548,6.2435,6.2548,6.2549,6.2601,6.2597,6.2942,6.2636,6.2636,6.2635,6.2634,0,6.1818,6.1948,6.1934,6.2022,6.2165,6.2138,6.228,6.2296,6.2336,6.2424,6.2371,6.2455,6.2431,6.2514,6.2503,6.2639,6.266,6.266,6.2655,6.2664,6.2663,6.2691,6.2674,6.2644,6.2642,6.264,6.2639,0,6.2079,6.2075,6.2226,6.2263,6.2275,6.2379,6.241,6.2492,6.2495,6.2607,6.2632,6.2637,6.2731,6.2723,6.283,6.2822,6.2989,6.2967,6.2972,6.2966,6.3079,6.3067,6.3451,6.3499,6.3164,6.3168,6.317,0,6.2249,6.2347,6.2395,6.245,6.248,6.2571,6.2623,6.2601,6.2659,6.2723,6.2797,6.2887,6.2957,6.3112,6.3124,6.3204,6.3182,6.3311,6.3194,6.3198,6.318,6.3173,6.3182,6.3333,6.3337,6.334,6.3343,0,6.255,6.2543,6.2622,6.2701,6.2766,6.2827,6.2882,6.293,6.2913,6.2981,6.3077,6.3132,6.324,6.3329,6.3406,6.343,6.3383,6.338,6.341,6.3418,6.3415,6.3415,6.3032,6.337,6.3368,6.3366,6.3364,6.3363,6.2769,6.2852,6.2898,6.2987,6.3026,6.3079,6.3157,6.317,6.325,6.3336,6.3318,6.3426,6.3472,6.357,6.3602,6.3685,6.3638,6.3683,6.3693,6.3704,6.3715,6.3405,6.37,6.3699,6.3698,6.3698,6.3697,0,6.3064,6.3091,6.3173,6.3252,6.3322,6.3273,6.3331,6.3392,6.3488,6.3536,6.3606,6.3716,6.3802,6.3821,6.3903,6.3966,6.3946,6.3988,6.3981,6.3987,6.3754,6.3719,6.4002,6.4002,6.4002,6.4002,6.4002,6.4002,6.3226,6.3364,6.3362,6.3518,6.3543,6.3648,6.3685,6.3733,6.377,6.3895,6.3966,6.3978,6.4014,6.4098,6.4175,6.4178,6.4209,6.4259,6.4254,6.4035,6.4004,6.3975,6.3941,6.4267,6.4267,6.4479,6.4481,6.4483]},{"header":{"parameterUnit":"m.s-1","parameterCategory":1,"la1":30.2991,"la2":30.254,"lo1":-89.0895,"lo2":-89.0444,"dy":0.0017,"dx":0.0017,"nx":28,"ny":28,"refTime":"2023-07-22T03:00:00:Z","depth":0,"parameterNumber":3,"parameterNumberName":"V-component_of_WINDS"},"data":[0,0,0,0,0,0,0,0,0,0,0,0,0,0,0,0,0,0,0,0,0,0,0,0,0,0,0,0,0,0,0,0,0,0,0,0,0,0,0,0,0,0,0,0,0,0,0,0,0,0,0,0,0,0,0,0,0,0,2.4174,2.4174,0,2.417,2.417,2.417,2.4098,2.4096,2.4094,2.4092,2.409,2.4092,2.4094,0,0,0,0,0,0,0,0,0,0,0,0,0,2.4121,2.4123,2.4174,2.4174,2.4174,2.417,2.417,2.4169,2.4098,2.4096,2.4094,2.4092,2.409,2.4092,2.4094,0,0,0,0,0,0,0,0,0,0,0,0,0,2.4133,2.4123,2.4174,2.4138,2.4134,2.417,2.417,2.4169,2.4099,2.4096,2.4093,2.4091,2.4089,2.4092,2.4094,2.4165,0,0,2.4102,2.4103,0,0,0,0,0,0,0,0,2.4133,2.4135,2.4143,2.414,2.4137,2.4131,2.415,2.4168,2.4099,2.4112,2.4092,2.4089,2.4106,2.4107,2.4113,2.4165,2.4164,2.4102,2.4104,2.4105,2.4105,0,0,0,0,0,0,0,2.4132,2.4135,2.4172,2.4143,2.4139,2.4122,2.4121,2.4153,2.4125,2.4111,2.4106,2.4106,2.4104,2.4111,2.4112,2.4164,2.4102,2.4104,2.4106,2.4107,2.4272,2.4275,0,0,0,0,0,0,2.4136,2.4135,2.4172,2.4172,2.4128,2.4125,2.4124,2.4136,2.4124,2.412,2.4108,2.4103,2.4108,2.4109,2.4112,2.4192,2.4105,2.4107,2.4108,2.4269,2.4272,2.4276,0,0,0,0,0,0,2.4135,2.414,2.4173,2.4152,2.4155,2.4129,2.4143,2.4137,2.4143,2.4122,2.4117,2.412,2.4105,2.4108,2.4151,2.4191,2.4108,2.411,2.4266,2.427,2.4274,2.4354,0,0,0,0,0,0,2.4134,2.414,2.4167,2.4153,2.4156,2.4212,2.4146,2.4139,2.4148,2.414,2.4132,2.4128,2.4104,2.4148,2.4154,2.4193,2.4112,2.4262,2.4268,2.4273,2.4348,2.4361,2.4372,0,0,0,0,0,2.4132,2.419,2.4168,2.4173,2.4189,2.4215,2.4216,2.4187,2.4151,2.4177,2.4164,2.4128,2.4186,2.4153,2.4159,2.4199,2.4259,2.4266,2.4272,2.4342,2.4358,2.4371,0,0,0,0,0,0,2.4211,2.4188,2.4163,2.4219,2.4219,2.4202,2.4235,2.4204,2.4216,2.4208,2.4171,2.417,2.4219,2.4213,2.4177,2.4266,2.4216,2.4224,2.4268,2.4282,2.4294,2.4294,2.4114,0,0,0,0,0,2.4234,2.4256,2.4236,2.4286,2.4288,2.4261,2.4272,2.4248,2.4248,2.4248,2.4237,2.4238,2.4256,2.4269,2.4285,2.4347,2.4343,2.4377,2.4389,2.4399,2.4406,2.4437,2.4452,2.4297,2.4297,2.4297,0,0,2.4283,2.4273,2.429,2.4302,2.4299,2.4323,2.4262,2.4291,2.4308,2.4252,2.4291,2.4284,2.4283,2.4335,2.4358,2.4332,2.4448,2.4408,2.4416,2.4417,2.4445,2.446,2.4473,2.4301,2.4301,2.43,0,0,2.4384,2.438,2.442,2.4419,2.4415,2.4397,2.4407,2.4395,2.4387,2.4426,2.4384,2.4404,2.4437,2.4437,2.4441,2.4541,2.4508,2.4547,2.4609,2.464,2.4652,2.4663,2.4697,2.471,2.4555,2.4555,2.4555,0,2.4446,2.448,2.4446,2.4476,2.4482,2.4431,2.4472,2.4472,2.4475,2.448,2.4451,2.449,2.4485,2.4536,2.456,2.4566,2.4576,2.4548,2.4653,2.4663,2.4673,2.4705,2.4718,2.4559,2.4559,2.4558,2.4558,0,2.4555,2.4579,2.4613,2.4614,2.4624,2.466,2.4631,2.4645,2.4621,2.4606,2.4645,2.4638,2.4651,2.4661,2.4639,2.4709,2.4693,2.4659,2.4608,2.4692,2.4722,2.4734,2.4566,2.4564,2.4563,2.4562,0,0,2.4706,2.4687,2.47,2.4699,2.469,2.4708,2.4742,2.4753,2.4765,2.4768,2.4794,2.4822,2.479,2.4796,2.4772,2.4799,2.4877,2.4762,2.4761,2.4783,2.4952,2.4977,2.4992,2.4855,2.4858,2.4859,2.4952,0,2.4802,2.4857,2.4826,2.4885,2.4906,2.4857,2.4886,2.4884,2.4871,2.4887,2.4872,2.4892,2.485,2.4852,2.4876,2.4862,2.491,2.4855,2.4879,2.488,2.488,2.5007,2.5034,2.5121,2.4963,2.4965,2.4967,0,2.4922,2.4929,2.4989,2.4975,2.4982,2.5009,2.5015,2.5032,2.5028,2.5016,2.5021,2.4991,2.5022,2.4973,2.5015,2.4978,2.4986,2.4981,2.4983,2.4984,2.4928,2.501,2.5149,2.5161,2.4985,2.4983,2.4982,0,2.5024,2.5048,2.5087,2.5088,2.5073,2.5092,2.5087,2.508,2.5088,2.5095,2.5099,2.511,2.5116,2.5124,2.5098,2.5064,2.5143,2.5091,2.5134,2.5135,2.5152,2.5151,2.5293,2.516,2.5159,2.5159,2.5159,0,2.5135,2.5173,2.5132,2.5156,2.5197,2.5162,2.5204,2.5194,2.5188,2.5209,2.5169,2.5189,2.5153,2.517,2.515,2.5187,2.5191,2.5182,2.5176,2.5185,2.5186,2.5189,2.5182,2.5163,2.5162,2.5161,2.5161,0,2.5256,2.523,2.5268,2.525,2.5246,2.5277,2.5262,2.5283,2.5266,2.5293,2.5298,2.5272,2.529,2.5264,2.528,2.5266,2.5317,2.5302,2.5318,2.5313,2.5356,2.5352,2.5504,2.5522,2.5378,2.538,2.5381,0,2.5327,2.5355,2.5339,2.535,2.5346,2.5364,2.5371,2.5337,2.5347,2.5344,2.5366,2.538,2.5389,2.542,2.5403,2.5414,2.5399,2.5451,2.54,2.5408,2.5398,2.5396,2.5398,2.5462,2.5463,2.5465,2.5466,0,2.5456,2.5441,2.5453,2.546,2.5469,2.5474,2.5475,2.5486,2.545,2.5463,2.548,2.5487,2.5502,2.5516,2.5523,2.5518,2.5486,2.5482,2.5492,2.5501,2.5508,2.5504,2.5345,2.5479,2.5477,2.5476,2.5476,2.5475,2.5553,2.5575,2.5567,2.5581,2.5578,2.558,2.5598,2.5583,2.5596,2.5604,2.5584,2.5606,2.5601,2.5606,2.5604,2.5621,2.5598,2.5613,2.5617,2.5621,2.5627,2.5507,2.5622,2.5622,2.5622,2.5621,2.5621,0,2.5679,2.5671,2.5684,2.5686,2.5697,2.5665,2.5664,2.5675,2.5694,2.5692,2.5701,2.572,2.5734,2.5717,2.5728,2.5744,2.573,2.5748,2.5746,2.5745,2.5648,2.5637,2.5759,2.5759,2.5759,2.5759,2.5759,2.5759,2.5746,2.578,2.5765,2.5797,2.5789,2.5809,2.5811,2.5812,2.581,2.5832,2.5842,2.5831,2.5823,2.5832,2.5843,2.5838,2.5843,2.5866,2.5856,2.5765,2.5752,2.5739,2.5729,2.5868,2.5868,2.5951,2.5952,2.5953]}]]